Regional Weather Roundup
Issued by NWS

Home | Current Version | Previous Version | Graphics & Text | Print | Product List | Glossary On
Versions: 1 2 3 4 5 6 7 8 9 10 11 12 13 14 15 16 17 18 19 20 21 22 23 24 25 26 27 28 29 30 31 32 33 34 35 36 37 38 39 40 41 42 43 44 45 46 47 48 49 50
535
ASUS43 KMKX 061121
RWRWI

WISCONSIN REGIONAL WEATHER ROUNDUP
NATIONAL WEATHER SERVICE MILWAUKEE/SULLIVAN WI
500 AM CST TUE DEC 06 2016

NOTE: "FAIR" INDICATES FEW OR NO CLOUDS BELOW 12,000 FEET WITH NO
SIGNIFICANT WEATHER AND/OR OBSTRUCTIONS TO VISIBILITY.

WIZ001-002-006>008-014>016-023>028-061200-
NORTHWEST WISCONSIN

CITY           SKY/WX    TMP DP  RH WIND       PRES   REMARKS
SUPERIOR ARPT  CLOUDY    35  29  80 SW12      29.59S WCI  26
ASHLAND        CLOUDY    34  32  92 MISG      29.63F
HAYWARD        LGT SNOW  33  30  88 S13       29.63F FOG     WCI  24
SIREN          CLOUDY    32  26  79 SW13G22   29.65R WCI  22
CUMBERLAND     LGT SNOW  32  30  93 S12       29.65F WCI  23
RICE LAKE      LGT SNOW  33  32  98 S8        29.68F WCI  25
CHETEK         LGT SNOW  32  32  99 S9        29.68F WCI  24
LADYSMITH      LGT SNOW  33  32  98 S9        29.70F WCI  25
EAU CLAIRE     LGT SNOW  33  32  96 S10       29.70F FOG     WCI  25
MENOMONIE      LGT SNOW  33  33 100 S10       29.70F WCI  25
NEW RICHMOND   FLURRIES  30  25  80 SW17G25   29.69R WCI  18
OSCEOLA        LGT SNOW  32  26  80 SW12      29.72S WCI  23
$$

WIZ003>005-009-010-017-018-061200-
NORTH CENTRAL WISCONSIN

CITY           SKY/WX    TMP DP  RH WIND       PRES   REMARKS
MANITOWISH WTR CLOUDY    32  30  92 S13G23    29.67F WCI  22
ARBOR VITAE    CLOUDY    34  29  82 S13       29.69F WCI  25
WOODRUFF       CLOUDY    34  29  82 S13       29.69F WCI  25
RHINELANDER    MOCLDY    31  28  89 S9        29.72F WCI  23
EAGLE RIVER    PTCLDY    31  26  82 S9        29.71S WCI  22
LAND O LAKES   PTCLDY    32  27  81 S9G16     29.71S WCI  24
PHILLIPS       CLOUDY    31  30  95 S10G17    29.68F WCI  22
TOMAHAWK       CLOUDY    30  27  90 S3        29.72F
MEDFORD        CLOUDY    30  28  93 S12       29.71F FOG     WCI  21
MERRILL        CLOUDY    31  29  91 S6        29.75F WCI  25
$$

WIZ029-030-035-036-043>047-061200-
CENTRAL WISCONSIN

CITY           SKY/WX    TMP DP  RH WIND       PRES   REMARKS
WAUSAU         CLOUDY    30  28  92 S13       29.75F WCI  20
MOSINEE        CLOUDY    30  30 100 S9        29.77F WCI  22
MARSHFIELD     CLOUDY    31  28  89 S10       29.74F WCI  22
STEVENS POINT  CLOUDY    29  28  98 S8        29.79F FOG     WCI  21
WAUPACA        CLOUDY    33  31  89 SE5       29.81F FOG     WCI  29
WAUTOMA        CLOUDY    31  29  92 S8        29.82F FOG     WCI  23
WISC RAPIDS    CLOUDY    31  29  92 S8        29.79F WCI  23
CAMP DOUGLAS   CLOUDY    31  28  87 S6        29.78F WCI  26
$$

WIZ011>013-019>022-031-037>040-048>050-061200-
NORTHEAST WISCONSIN

CITY           SKY/WX    TMP DP  RH WIND       PRES   REMARKS
ANTIGO         CLOUDY    29  28  99 S9        29.76S FOG     WCI  20
SHAWANO        CLOUDY    37  34  89 S3        29.80F
OCONTO         CLOUDY    38  35  89 S7        29.83F WCI  32
STURGEON BAY   CLOUDY    38  35  89 S15       29.84S WCI  29
GREEN BAY      CLOUDY    38  35  89 SE9       29.82F WCI  31
MANITOWOC      CLOUDY    39  35  86 S12       29.85F WCI  32
APPLETON       NOT AVBL
CLINTONVILLE   CLOUDY    34  32  93 S6        29.81S FOG     WCI  29
OSHKOSH        CLOUDY    33  31  92 S8        29.81F FOG     WCI  26
$$

WIZ032>034-041-042-053>061-061200-
SOUTHWEST WISCONSIN

CITY           SKY/WX    TMP DP  RH WIND       PRES   REMARKS
LA CROSSE      CLOUDY    35  31  85 S15       29.77F WCI  25
SPARTA         CLOUDY    32  30  93 S8        29.78F WCI  25
VIROQUA        CLOUDY    30  30 100 S12       29.75F WCI  20
BOSCOBEL       CLOUDY    33  30  88 CALM      29.81F
PRAIRIE DU CHI CLOUDY    33  30  89 SE3       29.80F
PLATTEVILLE    CLOUDY    32  32 100 SE6       29.80F VSB 1/2 WCI  26
$$

WIZ056-057-062-063-064-067-068-061200-
SOUTH CENTRAL WISCONSIN

CITY           SKY/WX    TMP DP  RH WIND       PRES   REMARKS
REEDSBURG      CLOUDY    30  30 100 SW7       29.81S WCI  23
BARABOO/DELLS  CLOUDY    30  29  96 SW8       29.80F FOG     WCI  23
LONE ROCK      CLOUDY    32  30  92 CALM      29.82F FOG
MINERAL POINT  SNOW      32  32 100 S3        29.79F VSB 1/4
MADISON        CLOUDY    31  31 100 S7        29.81F FOG     WCI  24
MIDDLETON      NOT AVBL
WATERTOWN      CLOUDY    31  31 100 CALM      29.82F FOG
MONROE         FOG       32  32 100 S5        29.79F VSB 1/2 WCI  27
JANESVILLE     FOG       34  34 100 SE3       29.81F VSB 1
$$

WIZ051-052-058>065-066-070>072-061200-
SOUTHEAST WISCONSIN

CITY           SKY/WX    TMP DP  RH WIND       PRES   REMARKS
MILWAUKEE      CLOUDY    39  33  79 S5        29.84F
WAUKESHA       CLOUDY    32  32 100 CALM      29.84F FOG
MILWAUKEE/TIMM CLOUDY    34  32  93 CALM      29.85S FOG
RACINE         MOCLDY    38  33  82 SE6       29.84F WCI  33
BURLINGTON     CLOUDY    32  32  99 CALM      29.82F FOG
KENOSHA        PTCLDY    36  33  89 E6        29.82F WCI  31
FOND DU LAC    CLOUDY    33  29  85 S13       29.82F WCI  24
SHEBOYGAN      CLOUDY    37  34  89 S7        29.84F WCI  32
WEST BEND      CLOUDY    32  32 100 CALM      29.83F FOG
JUNEAU         FOG       31  30  98 SE6       29.83F VSB 3/4 WCI  25
$$

LSZ147-162-061200-
LAKE SUPERIOR

STATION/POSITION TIME  TEMP    WIND        PRES    WAVE
                       AIR SEA DIR/SP/G            HT/PER
                 (UTC) (F)     (DEG/KT/KT) (MB)    (FT/S)
DEVILS ISLAND    1100   36     170/ 10/ 15 1003.6F
PORT WING        1040   38     180/ 17/ 22 1003.0F
SAXON HARBOR     1040   36     180/  5/ 12 1004.1F
$$

LMZ867-665-643>646-061200-
LAKE MICHIGAN

STATION/POSITION TIME  TEMP    WIND        PRES    WAVE
                       AIR SEA DIR/SP/G            HT/PER
                 (UTC) (F)     (DEG/KT/KT) (MB)    (FT/S)
CHAMBERS ISLAND  1040   40     150/  7/ 13 1010.2F
NORTHPORT PIER   1100   40     150/ 15/ 23 1010.5
SISTER BAY       1038   40     150/ 16/ 21   N/A
ALGOMA LAKESHORE 1051          190/ 21/ 26   N/A
KEWAUNEE LAKESHO 1054   40     170/ 18/ 19 1010.1F
SHEBOYGAN LAKESH 1100   40     170/ 17/ 19 1010.8F
PORT WASHINGTON  1040   37     260/  2/  4 1012.2S
MILWAUKEE LAKESH 1050   39     140/ 11/ 13   N/A
KENOSHA   LAKESH 1100   39     130/  7/  9 1009.8
$$

TC  - TEMPERATURE IN CELSIUS
VSB - VISIBILITY IN STATUTE MILES
WCI - WIND CHILL INDEX
HX  - HEAT INDEX





USA.gov is the U.S. government's official web portal to all federal, state and local government web resources and services.